Weather in Koshkent

Russia / Republic of Dagestan     41°44′27″N   48°02′28″E
temp.,
°C
wind,
m/s
gust,
m/s
humid.,
%
clouds,
%
prec.,
mm/h
press.,
hPa
HPBL,
m
17 august, wed
wed1700:00+23w32350 0.0 101217
03:00+22w33360 0.0 101216
06:00+23w33360 0.0 101329
09:00+30e32230 0.0 1012968
12:00+33ene22160 0.0 10101845
15:00+35e76130 0.0 10082392
18:00+28ene22200 0.0 101035
21:00+23w32270 0.0 101116
18 august, thu
thu1800:00+22w32321 0.0 101016
03:00+21w323363 0.0 101017
06:00+22w22312 0.0 101120
09:00+29e33190 0.0 1010817
12:00+32e55118 0.0 10091747
15:00+30e542111 0.0 10091211
18:00+24e223722 0.0 100960
21:00+21wnw224012 0.0 100911
19 august, fri
fri1900:00+21w22353 0.0 100913
03:00+20w22314 0.0 100913
06:00+21w22263 0.0 100915
09:00+27ene322337 0.0 1009700
12:00+29e4317100 0.0 10101325
15:00+29ene542055 0.0 10101437
18:00+24e343565 0.0 1012228
21:00+19w224292 0.0 101314
20 august, sat
sat2000:00+19wsw223672 0.0 101413
03:00+20wnw2232100 0.0 101314
06:00+19n1134100 0.0 101511
09:00+24e3228100 0.0 1015681
12:00+28e652998 0.0 10141679
15:00+25e5439100 0.0 10141289
18:00+21e2253100 0.0 1015276
21:00+17w226898 0.0 101612
21 august, sun
sun2100:00+17w226918 0.0 101511
03:00+15w21746 0.0 101511
06:00+17wnw116411 0.0 101522
09:00+22e324216 0.0 1015690
12:00+26e64312 0.0 10131490
15:00+24e64374 0.0 10131253
18:00+19e23500 0.0 1015360
21:00+15wsw22631 0.0 101512